sat.trackr.live / text

‹ back to catalog

STARLINK-32870

NORAD 63018 · 2025-032P

PAYLOAD ACTIVE UNKNOWN

§ Identity

Operator
Country
US
Launch date
2025-02-15
Launch site
AFETR
Launch vehicle
Mass (kg)
RCS (m²)

Purposes: comms

External: N2YO · Heavens-Above · Gunter

§ Orbital elements

Epoch: 2026-05-25T00:35:55.539168Z

Period
94.27 min
Inclination
42.9992°
Eccentricity
0.0001423
Mean motion
15.27586513 rev/d
Perigee alt
482.1 km
Apogee alt
484.0 km
Semi-major
6,861.2 km
B*
1.0069e-3
RAAN
265.0174°
Arg perigee
33.4659°
Mean anomaly
326.6283°
Rev number
7,229

§ Raw data

STARLINK-328701 63018U 25032P   26145.02494837  .00027553  00000+0  10069-2 0  99942 63018  42.9992 265.0174 0001423  33.4659 326.6283 15.27586513 72293

JSON: /api/v1/satellites/63018 · /tle

For live sub-satellite position, see the globe view (requires WebGL).

§ Visibility from observer

Set your observer location to see the next 7 days of passes ≥ 10°. The values pass through the URL so the page stays shareable.

No JS? Fill the form by hand. The geolocation button needs JavaScript.